This is the latest recevied weather packets stored in our database for station/object K5NWZ. If no packets are shown the sender has not sent any weather packets the latest 10 day(s).
| Time | Temp. | Humidity | Pressure | Rain* | Wind** | Luminosity | Snow |
|---|---|---|---|---|---|---|---|
| 1778119985 | 3.89° C | 72% | 1026.7 hPa | 0 mm | - | 1 W/m² | - |
| 1778119684 | 3.89° C | 72% | 1026.9 hPa | 0 mm | - | 2 W/m² | - |
| 1778119379 | 3.89° C | 70% | 1026.8 hPa | 0 mm | - | 3 W/m² | - |
| 1778119077 | 3.89° C | 70% | 1026.7 hPa | 0 mm | - | 5 W/m² | - |
| 1778118774 | 3.89° C | 70% | 1026.7 hPa | 0 mm | - | 7 W/m² | - |
| 1778118471 | 3.89° C | 69% | 1026.8 hPa | 0 mm | - | 10 W/m² | - |
| 1778118168 | 4.44° C | 68% | 1026.7 hPa | 0 mm | - | 13 W/m² | - |
| 1778117864 | 4.44° C | 67% | 1026.7 hPa | 0 mm | - | 16 W/m² | - |
| 1778117562 | 4.44° C | 65% | 1026.6 hPa | 0 mm | - | 19 W/m² | - |
| 1778117259 | 5° C | 65% | 1026.6 hPa | 0 mm | - | 22 W/m² | - |
| 1778116954 | 5° C | 64% | 1026.5 hPa | 0 mm | - | 24 W/m² | - |
| 1778116653 | 5° C | 64% | 1026.7 hPa | 0 mm | - | 27 W/m² | - |
| 1778116349 | 5° C | 64% | 1026.5 hPa | 0 mm | - | 27 W/m² | - |
| 1778116048 | 5° C | 64% | 1026.6 hPa | 0 mm | - | 30 W/m² | - |
| 1778115744 | 5.56° C | 61% | 1026.3 hPa | 0 mm | - | 33 W/m² | - |
| 1778115442 | 5.56° C | 63% | 1026.5 hPa | 0 mm | - | 35 W/m² | - |
| 1778115138 | 5.56° C | 61% | 1026.3 hPa | 0 mm | - | 36 W/m² | - |
| 1778114835 | 5.56° C | 62% | 1026.3 hPa | 0 mm | - | 38 W/m² | - |
| 1778114533 | 5.56° C | 62% | 1026.6 hPa | 0 mm | - | 44 W/m² | - |
| 1778114229 | 5.56° C | 62% | 1026.6 hPa | 0 mm | - | 69 W/m² | - |
| 1778113924 | 5.56° C | 63% | 1026.6 hPa | 0 mm | - | 83 W/m² | - |
| 1778113620 | 6.11° C | 62% | 1026.7 hPa | 0 mm | - | 95 W/m² | - |
| 1778113316 | 5.56° C | 62% | 1026.8 hPa | 0 mm | - | 128 W/m² | - |
| 1778113013 | 6.11° C | 61% | 1026.7 hPa | 0 mm | - | 118 W/m² | - |
| 1778112711 | 5.56° C | 63% | 1026.6 hPa | 0 mm | - | 127 W/m² | - |
* Rain latest hour (hover to see other rain measurements)
** Current wind speed in m/s (hover to see current wind gust speed)